This demonstration page uses our WeatherBlox Daily Observations layout. Learn more.

Left ArrowRight Arrow

Hourly Observations for May 15, 2018

Temp ( °F °C ) Dew Point ( °F °C ) Humidity (%) Winds ( mph kmh ) Pressure ( in mb ) Visibility ( mi km ) Precip ( " mm )
12:53 am 00:53 Cloudy 60 15.6 59 15 96 96 E 3 6 29.99 1016 10 16 0.00 0.00
1:53 am 01:53 Cloudy 60 15.6 58 14.4 93 93 NNW 3 6 29.98 1015 10 16 0.00 0.00
2:53 am 02:53 Clear 59 15 57 13.9 93 93 NNW 6 9 29.98 1015 10 16 0.00 0.00
3:53 am 03:53 Cloudy 58 14.4 57 13.9 97 97 N 3 6 29.98 1015 8 13 0.00 0.00
4:53 am 04:53 Cloudy 58 14.4 57 13.9 97 97 Calm 29.98 1015 8 13 0.00 0.00
5:53 am 05:53 Cloudy with Mist and Fog 57 13.9 57 13.9 100 100 W 3 6 29.99 1016 6 10 0.00 0.00
6:36 am 06:36 Cloudy with Mist and Fog 57 14 57 14 100 100 WNW 7 11 30.06 1018 6 10 0.00 0.00
6:53 am 06:53 Cloudy with Mist and Fog 57 13.9 57 13.9 100 100 WNW 7 11 30.03 1017 5 8 0.00 0.00
7:35 am 07:35 Cloudy 57 14 57 14 100 100 NW 8 13 30.06 1018 9 14 0.00 0.00
7:53 am 07:53 Cloudy 59 15 57 13.9 93 93 NW 9 15 30.05 1018 10 16 0.00 0.00
8:53 am 08:53 Cloudy 60 15.6 58 14.4 93 93 NNW 10 17 30.06 1018 10 16 0.00 0.00
9:53 am 09:53 Sunny 66 18.9 60 15.6 81 81 N 8 13 30.06 1018 10 16 0.00 0.00
10:53 am 10:53 Cloudy 68 20 60 15.6 76 76 Calm 30.06 1018 10 16 0.00 0.00
11:50 am 11:50 Mostly Cloudy 70 21 61 16 73 73 undefined N/A 30.03 1017 10 16 0.00 0.00
11:53 am 11:53 Mostly Cloudy 71 21.7 61 16.1 71 71 ENE 6 9 30.06 1018 10 16 0.00 0.00
12:02 pm 12:02 Mostly Cloudy 70 21 61 16 73 73 NE 8 13 30.03 1017 10 16 0.00 0.00
12:42 pm 12:42 Mostly Cloudy 71 21.7 59 15 66 66 N 6 9 30.03 1017 10 16 0.00 0.00
12:53 pm 12:53 Mostly Cloudy 71 21.7 58 14.4 63 63 NE 7 11 30.05 1018 10 16 0.00 0.00
1:53 pm 13:53 Mostly Sunny 72 22.2 60 15.6 66 66 ENE 9 15 30.04 1017 10 16 0.00 0.00
2:53 pm 14:53 Partly Cloudy 75 23.9 57 13.9 54 54 undefined N/A 30.02 1017 10 16 0.00 0.00
3:53 pm 15:53 Partly Cloudy 75 23.9 58 14.4 55 55 NNE 8 13 29.99 1016 10 16 0.00 0.00
4:53 pm 16:53 Mostly Sunny 76 24.4 56 13.3 50 50 ENE 12 19 29.98 1015 10 16 0.00 0.00
5:53 pm 17:53 Mostly Sunny 77 25 55 12.8 47 47 N 8 13 29.98 1015 10 16 0.00 0.00
6:53 pm 18:53 Mostly Sunny 78 25.6 56 13.3 47 47 E 10 17 29.97 1015 10 16 0.00 0.00
7:53 pm 19:53 Sunny 81 27.2 56 13.3 42 42 ENE 6 9 29.96 1015 10 16 0.00 0.00
8:53 pm 20:53 Clear 90 32.2 57 13.9 33 33 ENE 6 9 29.95 1014 10 16 0.00 0.00
9:53 pm 21:53 Clear 78 25.6 56 13.3 47 47 E 3 6 29.97 1015 10 16 0.00 0.00
10:53 pm 22:53 Clear 94 34.4 55 12.8 27 27 Calm 29.97 1015 10 16 0.00 0.00
11:53 pm 23:53 Clear 76 24.4 55 12.8 48 48 SE 6 9 29.98 1015 10 16 0.00 0.00

Powered by AerisWeather